Location: Zapote
(9.9191°N, 84.0597°W)
Time: 17:22:50
(UTC-06:00)

Transit 2A - Pass Details

Date: 04 March 2021
Orbit: 602 x 957 km, 66.7° (Epoch: 16 April)

Event Time Altitude Azimuth Distance (km) Brightness Sun altitude
Rises 16:12:51 0° 192° (SSW) 3,562 9.7 22.1°
Reaches altitude 10° 16:15:30 10° 188° (S) 2,583 9.0 21.5°
Maximum altitude 16:21:23 58° 110° (ESE) 985 6.6 20.0°
Drops below altitude 10° 16:26:46 10° 32° (NNE) 2,363 8.2 18.7°
Sets 16:29:05 0° 28° (NNE) 3,236 8.9 18.2°
